Time,TemperatureF,DewpointF,PressureIn,WindDirection,WindDirectionDegrees,WindSpeedMPH,WindSpeedGustMPH,Humidity,HourlyPrecipIn,Conditions,Clouds,dailyrainin,SolarRadiationWatts/m^2,SoftwareType,DateUTC
2013-06-16 00:01:00,53.0,50.0,-100.00,SSE,149,0.0,0.0,89,0.00,,,0.00,0.000000,,2013-06-16 07:01:00,
2013-06-16 00:11:00,53.0,50.0,-100.00,SSE,149,0.0,0.0,89,0.00,,,0.00,0.000000,,2013-06-16 07:11:00,
2013-06-16 00:22:00,53.0,50.0,-100.00,SSE,149,0.0,0.0,89,0.00,,,0.00,0.000000,,2013-06-16 07:22:00,
2013-06-16 00:32:00,53.0,50.0,-100.00,SSE,149,0.0,0.0,89,0.00,,,0.00,0.000000,,2013-06-16 07:32:00,
2013-06-16 00:33:00,52.0,49.0,-100.00,SE,140,0.0,4.0,90,0.00,,,0.00,0.000000,,2013-06-16 07:33:00,
2013-06-16 00:53:00,52.0,49.0,-100.00,SE,140,0.0,4.0,90,0.00,,,0.00,0.000000,,2013-06-16 07:53:00,
2013-06-16 01:02:00,52.0,49.0,-100.00,SE,140,0.0,4.0,90,0.00,,,0.00,0.000000,,2013-06-16 08:02:00,
2013-06-16 01:11:00,52.0,49.0,-100.00,SE,140,0.0,4.0,90,0.00,,,0.00,0.000000,,2013-06-16 08:11:00,
2013-06-16 01:22:00,52.0,49.0,-100.00,SE,140,0.0,4.0,90,0.00,,,0.00,0.000000,,2013-06-16 08:22:00,
2013-06-16 01:33:00,50.0,49.0,-100.00,South,174,0.0,2.0,95,0.00,,,0.00,0.000000,,2013-06-16 08:33:00,
2013-06-16 01:54:00,50.0,49.0,-100.00,South,174,0.0,2.0,95,0.00,,,0.00,0.000000,,2013-06-16 08:54:00,
2013-06-16 02:01:00,50.0,49.0,-100.00,South,174,0.0,2.0,95,0.00,,,0.00,0.000000,,2013-06-16 09:01:00,
2013-06-16 02:11:00,50.0,49.0,-100.00,South,174,0.0,2.0,95,0.00,,,0.00,0.000000,,2013-06-16 09:11:00,
2013-06-16 02:22:00,50.0,49.0,-100.00,South,174,0.0,2.0,95,0.00,,,0.00,0.000000,,2013-06-16 09:22:00,
2013-06-16 02:33:00,49.0,48.0,-100.00,SSW,193,0.0,3.0,96,0.00,,,0.00,0.000000,,2013-06-16 09:33:00,
2013-06-16 02:52:00,49.0,48.0,-100.00,SSW,193,0.0,3.0,96,0.00,,,0.00,0.000000,,2013-06-16 09:52:00,
2013-06-16 03:01:00,49.0,48.0,-100.00,SSW,193,0.0,3.0,96,0.00,,,0.00,0.000000,,2013-06-16 10:01:00,
2013-06-16 03:12:00,49.0,48.0,-100.00,SSW,193,0.0,3.0,96,0.00,,,0.00,0.000000,,2013-06-16 10:12:00,
2013-06-16 03:22:00,49.0,48.0,-100.00,SSW,193,0.0,3.0,96,0.00,,,0.00,0.000000,,2013-06-16 10:22:00,
2013-06-16 03:33:00,50.0,48.0,-100.00,SSE,156,0.0,3.0,93,0.00,,,-99.99,0.000000,,2013-06-16 10:33:00,
2013-06-16 03:54:00,50.0,48.0,-100.00,SSE,156,0.0,3.0,93,0.00,,,-99.99,0.000000,,2013-06-16 10:54:00,
2013-06-16 04:02:00,50.0,48.0,-100.00,SSE,156,0.0,3.0,93,0.00,,,-99.99,0.000000,,2013-06-16 11:02:00,
2013-06-16 04:11:00,50.0,48.0,-100.00,SSE,156,0.0,3.0,93,0.00,,,-99.99,0.000000,,2013-06-16 11:11:00,
2013-06-16 04:22:00,50.0,48.0,-100.00,SSE,156,0.0,3.0,93,0.00,,,-99.99,0.000000,,2013-06-16 11:22:00,
2013-06-16 05:02:00,51.0,49.0,-100.00,NW,319,0.0,3.0,92,0.00,,,0.00,0.000000,,2013-06-16 12:02:00,
2013-06-16 05:11:00,51.0,49.0,-100.00,NW,319,0.0,3.0,92,0.00,,,0.00,0.000000,,2013-06-16 12:11:00,
2013-06-16 05:22:00,51.0,49.0,-100.00,NW,319,0.0,3.0,92,0.00,,,0.00,0.000000,,2013-06-16 12:22:00,
2013-06-16 05:32:00,51.0,49.0,-100.00,NW,319,0.0,3.0,92,0.00,,,0.00,0.000000,,2013-06-16 12:32:00,
2013-06-16 05:33:00,52.0,50.0,-100.00,NNW,339,0.0,3.0,92,0.00,,,0.00,2.000000,,2013-06-16 12:33:00,
2013-06-16 05:53:00,52.0,50.0,-100.00,NNW,339,0.0,3.0,92,0.00,,,0.00,2.000000,,2013-06-16 12:53:00,
2013-06-16 06:01:00,52.0,50.0,-100.00,NNW,339,0.0,3.0,92,0.00,,,0.00,2.000000,,2013-06-16 13:01:00,
2013-06-16 06:11:00,52.0,50.0,-100.00,NNW,339,0.0,3.0,92,0.00,,,0.00,2.000000,,2013-06-16 13:11:00,
2013-06-16 06:22:00,52.0,50.0,-100.00,NNW,339,0.0,3.0,92,0.00,,,0.00,2.000000,,2013-06-16 13:22:00,
2013-06-16 06:33:00,52.0,50.0,-100.00,NE,43,0.0,2.0,92,0.00,,,0.00,16.000000,,2013-06-16 13:33:00,
2013-06-16 07:02:00,52.0,50.0,-100.00,NE,43,0.0,2.0,92,0.00,,,0.00,16.000000,,2013-06-16 14:02:00,
2013-06-16 07:12:00,52.0,50.0,-100.00,NE,43,0.0,2.0,92,0.00,,,0.00,16.000000,,2013-06-16 14:12:00,
2013-06-16 07:22:00,52.0,50.0,-100.00,NE,43,0.0,2.0,92,0.00,,,0.00,16.000000,,2013-06-16 14:22:00,
2013-06-16 07:33:00,53.0,50.0,-100.00,NE,37,0.0,3.0,90,0.00,,,0.00,29.000000,,2013-06-16 14:33:00,
2013-06-16 08:02:00,53.0,50.0,-100.00,NE,37,0.0,3.0,90,0.00,,,0.00,29.000000,,2013-06-16 15:02:00,
2013-06-16 08:12:00,53.0,50.0,-100.00,NE,37,0.0,3.0,90,0.00,,,0.00,29.000000,,2013-06-16 15:12:00,
2013-06-16 08:22:00,53.0,50.0,-100.00,NE,37,0.0,3.0,90,0.00,,,0.00,29.000000,,2013-06-16 15:22:00,
2013-06-16 08:33:00,55.0,51.0,-100.00,ESE,109,1.0,5.0,86,0.00,,,0.00,66.000000,,2013-06-16 15:33:00,
2013-06-16 08:52:00,55.0,51.0,-100.00,ESE,109,1.0,5.0,86,0.00,,,0.00,66.000000,,2013-06-16 15:52:00,
2013-06-16 09:01:00,55.0,51.0,-100.00,ESE,109,1.0,5.0,86,0.00,,,0.00,66.000000,,2013-06-16 16:01:00,
2013-06-16 09:11:00,55.0,51.0,-100.00,ESE,109,1.0,5.0,86,0.00,,,0.00,66.000000,,2013-06-16 16:11:00,
2013-06-16 09:22:00,55.0,51.0,-100.00,ESE,109,1.0,5.0,86,0.00,,,0.00,66.000000,,2013-06-16 16:22:00,
2013-06-16 09:33:00,61.0,52.0,-100.00,ESE,121,2.0,5.0,72,0.00,,,0.00,320.000000,,2013-06-16 16:33:00,
2013-06-16 10:01:00,61.0,52.0,-100.00,ESE,121,2.0,5.0,72,0.00,,,0.00,320.000000,,2013-06-16 17:01:00,
2013-06-16 10:11:00,61.0,52.0,-100.00,ESE,121,2.0,5.0,72,0.00,,,0.00,320.000000,,2013-06-16 17:11:00,
2013-06-16 10:22:00,61.0,52.0,-100.00,ESE,121,2.0,5.0,72,0.00,,,0.00,320.000000,,2013-06-16 17:22:00,
2013-06-16 10:33:00,61.0,52.0,-100.00,SW,222,2.0,6.0,71,0.00,,,0.00,214.000000,,2013-06-16 17:33:00,
2013-06-16 11:02:00,61.0,52.0,-100.00,SW,222,2.0,6.0,71,0.00,,,0.00,214.000000,,2013-06-16 18:02:00,
2013-06-16 11:12:00,61.0,52.0,-100.00,SW,222,2.0,6.0,71,0.00,,,0.00,214.000000,,2013-06-16 18:12:00,
2013-06-16 11:22:00,61.0,52.0,-100.00,SW,222,2.0,6.0,71,0.00,,,0.00,214.000000,,2013-06-16 18:22:00,
2013-06-16 11:33:00,62.0,52.0,-100.00,SW,235,1.0,5.0,69,0.00,,,0.00,256.000000,,2013-06-16 18:33:00,
2013-06-16 11:52:00,62.0,52.0,-100.00,SW,235,1.0,5.0,69,0.00,,,0.00,256.000000,,2013-06-16 18:52:00,
2013-06-16 12:01:00,62.0,52.0,-100.00,SW,235,1.0,5.0,69,0.00,,,0.00,256.000000,,2013-06-16 19:01:00,
2013-06-16 12:11:00,62.0,52.0,-100.00,SW,235,1.0,5.0,69,0.00,,,0.00,256.000000,,2013-06-16 19:11:00,
2013-06-16 12:22:00,62.0,52.0,-100.00,SW,235,1.0,5.0,69,0.00,,,0.00,256.000000,,2013-06-16 19:22:00,
2013-06-16 12:33:00,65.0,53.0,-100.00,West,266,3.0,8.0,64,0.00,,,0.00,449.000000,,2013-06-16 19:33:00,
2013-06-16 12:53:00,65.0,53.0,-100.00,West,266,3.0,8.0,64,0.00,,,0.00,449.000000,,2013-06-16 19:53:00,
2013-06-16 13:02:00,65.0,53.0,-100.00,West,266,3.0,8.0,64,0.00,,,0.00,449.000000,,2013-06-16 20:02:00,
2013-06-16 13:11:00,65.0,53.0,-100.00,West,266,3.0,8.0,64,0.00,,,0.00,449.000000,,2013-06-16 20:11:00,
2013-06-16 13:22:00,65.0,53.0,-100.00,West,266,3.0,8.0,64,0.00,,,0.00,449.000000,,2013-06-16 20:22:00,
2013-06-16 13:53:00,65.0,53.0,-100.00,SW,225,2.0,7.0,65,0.00,,,0.00,389.000000,,2013-06-16 20:53:00,
2013-06-16 14:01:00,65.0,53.0,-100.00,SW,225,2.0,7.0,65,0.00,,,0.00,389.000000,,2013-06-16 21:01:00,
2013-06-16 14:11:00,65.0,53.0,-100.00,SW,225,2.0,7.0,65,0.00,,,0.00,389.000000,,2013-06-16 21:11:00,
2013-06-16 14:21:00,65.0,53.0,-100.00,SW,225,2.0,7.0,65,0.00,,,0.00,389.000000,,2013-06-16 21:21:00,
2013-06-16 14:32:00,65.0,53.0,-100.00,SW,225,2.0,7.0,65,0.00,,,0.00,389.000000,,2013-06-16 21:32:00,
2013-06-16 14:53:00,66.0,53.0,-100.00,West,260,2.0,7.0,63,0.00,,,0.00,548.000000,,2013-06-16 21:53:00,
2013-06-16 15:01:00,66.0,53.0,-100.00,West,260,2.0,7.0,63,0.00,,,0.00,548.000000,,2013-06-16 22:01:00,
2013-06-16 15:12:00,66.0,53.0,-100.00,West,260,2.0,7.0,63,0.00,,,0.00,548.000000,,2013-06-16 22:12:00,
2013-06-16 15:22:00,66.0,53.0,-100.00,West,260,2.0,7.0,63,0.00,,,0.00,548.000000,,2013-06-16 22:22:00,
2013-06-16 15:32:00,66.0,53.0,-100.00,West,260,2.0,7.0,63,0.00,,,0.00,548.000000,,2013-06-16 22:32:00,
2013-06-16 15:52:00,69.0,53.0,-100.00,WSW,251,3.0,8.0,57,0.00,,,0.00,731.000000,,2013-06-16 22:52:00,
2013-06-16 16:01:00,69.0,53.0,-100.00,WSW,251,3.0,8.0,57,0.00,,,0.00,731.000000,,2013-06-16 23:01:00,
2013-06-16 16:11:00,69.0,53.0,-100.00,WSW,251,3.0,8.0,57,0.00,,,0.00,731.000000,,2013-06-16 23:11:00,
2013-06-16 16:22:00,69.0,53.0,-100.00,WSW,251,3.0,8.0,57,0.00,,,0.00,731.000000,,2013-06-16 23:22:00,
2013-06-16 16:32:00,69.0,53.0,-100.00,WSW,251,3.0,8.0,57,0.00,,,0.00,731.000000,,2013-06-16 23:32:00,
2013-06-16 16:52:00,64.0,52.0,-100.00,West,267,4.0,10.0,64,0.00,,,0.00,312.000000,,2013-06-16 23:52:00,
2013-06-16 17:02:00,64.0,52.0,-100.00,West,267,4.0,10.0,64,0.00,,,0.00,312.000000,,2013-06-17 00:02:00,
2013-06-16 17:11:00,64.0,52.0,-100.00,West,267,4.0,10.0,64,0.00,,,0.00,312.000000,,2013-06-17 00:11:00,
2013-06-16 17:22:00,64.0,52.0,-100.00,West,267,4.0,10.0,64,0.00,,,0.00,312.000000,,2013-06-17 00:22:00,
2013-06-16 17:32:00,64.0,52.0,-100.00,West,267,4.0,10.0,64,0.00,,,0.00,312.000000,,2013-06-17 00:32:00,
2013-06-16 17:52:00,65.0,53.0,-100.00,WSW,254,3.0,10.0,64,0.00,,,0.00,405.000000,,2013-06-17 00:52:00,
2013-06-16 18:02:00,65.0,53.0,-100.00,WSW,254,3.0,10.0,64,0.00,,,0.00,405.000000,,2013-06-17 01:02:00,
2013-06-16 18:11:00,65.0,53.0,-100.00,WSW,254,3.0,10.0,64,0.00,,,0.00,405.000000,,2013-06-17 01:11:00,
2013-06-16 18:22:00,65.0,53.0,-100.00,WSW,254,3.0,10.0,64,0.00,,,0.00,405.000000,,2013-06-17 01:22:00,
2013-06-16 18:32:00,65.0,53.0,-100.00,WSW,254,3.0,10.0,64,0.00,,,0.00,405.000000,,2013-06-17 01:32:00,
2013-06-16 18:33:00,61.0,51.0,-100.00,WSW,249,2.0,10.0,70,0.00,,,0.00,301.000000,,2013-06-17 01:33:00,
2013-06-16 18:53:00,61.0,51.0,-100.00,WSW,249,2.0,10.0,70,0.00,,,0.00,301.000000,,2013-06-17 01:53:00,
2013-06-16 19:02:00,61.0,51.0,-100.00,WSW,249,2.0,10.0,70,0.00,,,0.00,301.000000,,2013-06-17 02:02:00,
2013-06-16 19:12:00,61.0,51.0,-100.00,WSW,249,2.0,10.0,70,0.00,,,0.00,301.000000,,2013-06-17 02:12:00,
2013-06-16 19:22:00,61.0,51.0,-100.00,WSW,249,2.0,10.0,70,0.00,,,0.00,301.000000,,2013-06-17 02:22:00,
2013-06-16 19:33:00,61.0,52.0,-100.00,WSW,257,2.0,8.0,72,0.00,,,0.00,188.000000,,2013-06-17 02:33:00,
2013-06-16 20:02:00,61.0,52.0,-100.00,WSW,257,2.0,8.0,72,0.00,,,0.00,188.000000,,2013-06-17 03:02:00,
2013-06-16 20:12:00,61.0,52.0,-100.00,WSW,257,2.0,8.0,72,0.00,,,0.00,188.000000,,2013-06-17 03:12:00,
2013-06-16 20:22:00,61.0,52.0,-100.00,WSW,257,2.0,8.0,72,0.00,,,0.00,188.000000,,2013-06-17 03:22:00,
2013-06-16 20:33:00,58.0,51.0,-100.00,WSW,246,1.0,5.0,78,0.00,,,0.00,57.000000,,2013-06-17 03:33:00,
2013-06-16 21:02:00,58.0,51.0,-100.00,WSW,246,1.0,5.0,78,0.00,,,0.00,57.000000,,2013-06-17 04:02:00,
2013-06-16 21:12:00,58.0,51.0,-100.00,WSW,246,1.0,5.0,78,0.00,,,0.00,57.000000,,2013-06-17 04:12:00,
2013-06-16 21:22:00,58.0,51.0,-100.00,WSW,246,1.0,5.0,78,0.00,,,0.00,57.000000,,2013-06-17 04:22:00,
2013-06-16 21:33:00,55.0,51.0,-100.00,West,271,0.0,4.0,87,0.00,,,0.00,12.000000,,2013-06-17 04:33:00,
2013-06-16 22:02:00,55.0,51.0,-100.00,West,271,0.0,4.0,87,0.00,,,0.00,12.000000,,2013-06-17 05:02:00,
2013-06-16 22:11:00,55.0,51.0,-100.00,West,271,0.0,4.0,87,0.00,,,0.00,12.000000,,2013-06-17 05:11:00,
2013-06-16 22:22:00,55.0,51.0,-100.00,West,271,0.0,4.0,87,0.00,,,0.00,12.000000,,2013-06-17 05:22:00,
2013-06-16 23:02:00,52.0,50.0,-100.00,SE,135,0.0,3.0,92,0.00,,,0.00,0.000000,,2013-06-17 06:02:00,
2013-06-16 23:12:00,52.0,50.0,-100.00,SE,135,0.0,3.0,92,0.00,,,0.00,0.000000,,2013-06-17 06:12:00,
2013-06-16 23:22:00,52.0,50.0,-100.00,SE,135,0.0,3.0,92,0.00,,,0.00,0.000000,,2013-06-17 06:22:00,
2013-06-16 23:32:00,52.0,50.0,-100.00,SE,135,0.0,3.0,92,0.00,,,0.00,0.000000,,2013-06-17 06:32:00,
2013-06-16 23:33:00,51.0,50.0,-100.00,SSE,150,0.0,2.0,95,0.00,,,0.00,0.000000,,2013-06-17 06:33:00,